Regional Weather Roundup
Issued by NWS Newport/Morehead, NC

Current Version | Previous Version | Text Only | Print | Product List | Glossary Off
Versions: 1 2 3 4 5 6 7 8 9 10 11 12 13 14 15 16 17 18 19 20 21 22 23 24 25 26 27 28 29 30 31 32 33 34 35 36 37 38 39 40 41 42 43 44 45 46 47 48 49 50
592 ASUS42 KMHX 260425 RWRMHX WEATHER ROUNDUP FOR EASTERN NORTH CAROLINA NATIONAL WEATHER SERVICE NEWPORT/MOREHEAD CITY NC 1200 AM EDT WED APR 26 2017 NOTE: "FAIR" INDICATES FEW OR NO CLOUDS BELOW 12,000 FEET WITH NO SIGNIFICANT WEATHER AND/OR OBSTRUCTIONS TO VISIBILITY NCZ015>017-031-032-045>047-102-103-260500- NORTH COAST CITY SKY/WX TMP DP RH WIND PRES REMARKS EDENTON MOCLDY 64 60 85 CALM 29.70S ELIZABETH CITY LGT RAIN 63 63 100 W6 29.68S KITTY HAWK PTCLDY 64 64 97 CALM 29.67R MANTEO MOCLDY 64 61 88 W6 29.68S $$ NCZ045>047-081-094-103-104-260500- CENTRAL COAST CITY SKY/WX TMP DP RH WIND PRES REMARKS FRISCO CLEAR 67 63 87 W8 29.69R FOG $$ NCZ095-097-098-100-101-260500- SOUTHERN COAST CITY SKY/WX TMP DP RH WIND PRES REMARKS BEAUFORT CLEAR 65 62 90 W12 29.72R CEDAR ISLAND NOT AVBL JACKSONVILLE CLEAR 61 61 100 W7 29.73R PINEY ISLAND CLEAR N/A N/A N/A W13 29.71R WILMINGTON CLEAR 62 60 93 W9 29.75R $$ NCZ011>013-027>030-043-044-078>080-089-090>093-098-260500- COASTAL PLAIN CITY SKY/WX TMP DP RH WIND PRES REMARKS AHOSKIE N/A 63 62 97 N5 29.70S CLINTON MOCLDY 61 61 99 CALM 29.75S ELIZABETHTOWN CLOUDY 63 62 96 W3 29.76R GOLDSBORO PTCLDY 61 61 100 W6 29.71R GREENVILLE MOCLDY 63 61 94 W3 29.75R HAVELOCK CLEAR 64 60 87 W9 29.72R KENANSVILLE CLEAR 59 57 94 SW5 29.73S KINSTON CLEAR 61 59 95 CALM 29.72R NEW BERN CLEAR 62 61 96 W6 29.73R RICHLANDS CLEAR 60 59 96 SW5 29.74R ROCKY MOUNT CLOUDY 62 61 96 NW8 29.72S WASHINGTON CLEAR 62 61 97 W3 29.71R WHITEVILLE CLOUDY 63 60 89 CALM 29.76S $$ AMZ130-135-150-152-154-156-158-170-250-252-270-ANZ085-086-088-633-658-670-260500- MARINE OBSERVATIONS STATION/POSITION TIME TEMP WIND PRES WAVE SWELL AIR SEA DIR/SP/G HT/PER HT/PER (UTC) (F) (DEG/KT/KT) (MB) (FT/S) (FT/S) CHESAPEAKE LIGHT NOT AVBL 64 E VA BEACH 0350 56 54 200/ 4/ 6 1005.1 8/ 9 8/ 9 DUCK 0400 66 58 280/ 5/ 7 1004.3 2 E DUCK 0400 60 N/A 6/ 9 3/11 OREGON INLET 0400 64 65 220/ 9/ 9 1004.7 13E OREGON INLT 0348 59 N/A 6/ 9 7/ 9 HATTERAS CG 0400 67 68 260/ 9/ 13 1005.2 DIAMOND BUOY 0350 72 77 260/ 19/ 23 1004.9 8/10 5/10 CAPE LOOKOUT 0400 65 270/ 15/ 20 1005.9 BEAUFORT LAB 0400 65 66 290/ 6/ 12 1005.5 30 SE NEW RVR IN 0408 66 280/ 14/ 19 1006.7 30 SE NEW RVR IN 0413 71 N/A 7/10 2/11 27 SE WRIGHTSVLE 0408 66 71 270/ 16/ 21 1006.4 5 SE WRIGHTSVLE 0408 64 70 280/ 14/ 19 1007.2 225 S CAPE HAT 0350 73 76 220/ 19/ 23 1009.3 10/ 8 3/14 41 SE CHARLESTON 0400 72 73 240/ 12/ 14 1008.6 $$

USA.gov is the U.S. government's official web portal to all federal, state and local government web resources and services.